timestamp,wind_dir_avg,wind_spd_avg,wind_spd_max_dir,wind_spd_gust,battery_voltage,lat,long
2022-07-11 00:04:00+00:00,244.0,4.58,245.0,5.07,13.13,47.59359,-54.27349
2022-07-11 00:14:01+00:00,258.0,5.39,260.0,6.09,12.57,47.59359,-54.27349
2022-07-11 00:24:01+00:00,265.0,5.29,267.0,5.85,12.57,47.59359,-54.27349
2022-07-11 00:34:01+00:00,267.0,5.66,265.0,6.37,12.57,47.59359,-54.27349
2022-07-11 00:44:01+00:00,269.0,5.34,276.0,5.94,12.57,47.59359,-54.27349
2022-07-11 00:54:01+00:00,264.0,4.7,264.0,5.26,12.57,47.59359,-54.27349
2022-07-11 01:04:01+00:00,255.0,5.29,252.0,5.82,12.57,47.59359,-54.27349
2022-07-11 01:14:00+00:00,248.0,4.53,245.0,5.3,12.33,47.59359,-54.27349
2022-07-11 01:24:00+00:00,242.0,4.77,246.0,5.88,12.33,47.59359,-54.27349
2022-07-11 01:34:00+00:00,239.0,5.62,243.0,6.35,12.33,47.59359,-54.27349
2022-07-11 01:44:00+00:00,239.0,5.58,240.0,6.13,12.33,47.59359,-54.27349
2022-07-11 01:54:00+00:00,254.0,4.51,254.0,5.03,12.33,47.59359,-54.27349
2022-07-11 02:04:00+00:00,265.0,6.13,267.0,6.84,12.33,47.59359,-54.27349
2022-07-11 02:14:00+00:00,233.0,5.05,238.0,6.12,12.41,47.59359,-54.27349
2022-07-11 02:24:00+00:00,233.0,5.53,230.0,5.97,12.41,47.59359,-54.27349
2022-07-11 02:34:00+00:00,235.0,4.82,236.0,5.35,12.41,47.59359,-54.27349
2022-07-11 02:44:00+00:00,235.0,5.59,234.0,6.62,12.41,47.59359,-54.27349
2022-07-11 02:54:00+00:00,232.0,5.03,230.0,5.6,12.41,47.59359,-54.27349
2022-07-11 03:04:00+00:00,241.0,4.88,241.0,5.36,12.41,47.59359,-54.27349
2022-07-11 03:14:00+00:00,249.0,4.08,250.0,4.55,12.41,47.59359,-54.27349
2022-07-11 03:24:00+00:00,235.0,5.72,234.0,6.71,12.41,47.59359,-54.27349
2022-07-11 03:34:00+00:00,238.0,5.4,240.0,6.56,12.41,47.59359,-54.27349
2022-07-11 03:44:00+00:00,246.0,5.89,249.0,7.01,12.41,47.59359,-54.27349
2022-07-11 03:54:00+00:00,248.0,6.82,248.0,7.42,12.41,47.59359,-54.27349
2022-07-11 04:04:00+00:00,257.0,6.03,259.0,6.35,12.41,47.59359,-54.27349
2022-07-11 04:14:01+00:00,251.0,6.09,251.0,6.67,12.41,47.59359,-54.27349
2022-07-11 04:24:01+00:00,255.0,6.46,257.0,6.95,12.41,47.59359,-54.27349
2022-07-11 04:34:01+00:00,259.0,6.62,262.0,6.93,12.41,47.59359,-54.27349
2022-07-11 04:44:01+00:00,263.0,6.73,264.0,7.04,12.41,47.59359,-54.27349
2022-07-11 04:54:01+00:00,263.0,6.39,261.0,7.11,12.41,47.59359,-54.27349
2022-07-11 05:04:01+00:00,262.0,5.8,259.0,6.33,12.41,47.59359,-54.27349
2022-07-11 05:14:01+00:00,264.0,6.36,266.0,6.72,12.33,47.59359,-54.27349
2022-07-11 05:24:01+00:00,266.0,6.89,266.0,7.26,12.33,47.59359,-54.27349
2022-07-11 05:34:01+00:00,269.0,6.4,266.0,6.86,12.33,47.59359,-54.27349
2022-07-11 05:44:01+00:00,276.0,6.37,275.0,6.81,12.33,47.59359,-54.27349
2022-07-11 05:54:01+00:00,275.0,6.57,276.0,7.15,12.33,47.59359,-54.27349
2022-07-11 06:04:01+00:00,273.0,6.5,274.0,6.99,12.33,47.59359,-54.27349
2022-07-11 06:14:00+00:00,272.0,6.13,270.0,6.76,12.17,47.59359,-54.27349
2022-07-11 06:24:00+00:00,264.0,5.1,264.0,6.0,12.17,47.59359,-54.27349
2022-07-11 06:34:00+00:00,268.0,4.86,283.0,5.56,12.17,47.59359,-54.27349
2022-07-11 06:44:00+00:00,264.0,4.0,260.0,4.7,12.17,47.59359,-54.27349
2022-07-11 06:54:00+00:00,233.0,3.61,240.0,4.16,12.17,47.59359,-54.27349
2022-07-11 07:04:00+00:00,202.0,2.16,213.0,2.8,12.17,47.59359,-54.27349
2022-07-11 07:14:00+00:00,212.0,1.08,206.0,1.76,12.25,47.59359,-54.27349
2022-07-11 07:24:00+00:00,190.0,1.81,185.0,2.15,12.25,47.59359,-54.27349
2022-07-11 07:34:00+00:00,208.0,3.28,203.0,3.67,12.25,47.59359,-54.27349
2022-07-11 07:44:00+00:00,206.0,2.78,206.0,3.18,12.25,47.59359,-54.27349
2022-07-11 07:54:00+00:00,212.0,3.42,214.0,3.74,12.25,47.59359,-54.27349
2022-07-11 08:04:00+00:00,209.0,2.5,211.0,2.74,12.25,47.59359,-54.27349
2022-07-11 08:14:00+00:00,210.0,2.23,219.0,2.65,12.33,47.59359,-54.27349
2022-07-11 08:24:00+00:00,214.0,3.03,213.0,3.4,12.33,47.59359,-54.27349
2022-07-11 08:34:00+00:00,213.0,2.9,216.0,3.14,12.33,47.59359,-54.27349
2022-07-11 08:44:00+00:00,214.0,2.49,217.0,2.87,12.33,47.59359,-54.27349
2022-07-11 08:54:00+00:00,211.0,3.66,214.0,4.14,12.33,47.59359,-54.27349
2022-07-11 09:04:00+00:00,217.0,3.71,217.0,3.98,12.33,47.59359,-54.27349
2022-07-11 09:14:00+00:00,225.0,3.38,223.0,3.69,12.81,47.59359,-54.27349
2022-07-11 09:24:00+00:00,214.0,2.55,217.0,2.86,12.81,47.59359,-54.27349
2022-07-11 09:34:00+00:00,217.0,2.67,216.0,2.89,12.81,47.59359,-54.27349
2022-07-11 09:44:00+00:00,206.0,2.96,208.0,3.26,12.81,47.59359,-54.27349
2022-07-11 09:54:00+00:00,206.0,2.84,209.0,3.1,12.81,47.59359,-54.27349
2022-07-11 10:04:00+00:00,194.0,2.81,194.0,3.08,12.81,47.59359,-54.27349
2022-07-11 10:14:00+00:00,174.0,3.56,173.0,3.85,13.29,47.59359,-54.27349
2022-07-11 10:24:00+00:00,183.0,2.65,181.0,2.92,13.29,47.59359,-54.27349
2022-07-11 10:34:00+00:00,196.0,2.45,194.0,2.82,13.29,47.59359,-54.27349
2022-07-11 10:44:00+00:00,174.0,2.39,175.0,2.69,13.29,47.59359,-54.27349
2022-07-11 10:54:00+00:00,201.0,2.95,200.0,3.26,13.29,47.59359,-54.27349
2022-07-11 11:04:00+00:00,216.0,4.61,215.0,5.05,13.29,47.59359,-54.27349
2022-07-11 11:14:00+00:00,212.0,5.91,212.0,6.47,13.53,47.59359,-54.27349
2022-07-11 11:24:00+00:00,222.0,5.79,216.0,6.3,13.53,47.59359,-54.27349
2022-07-11 11:34:00+00:00,210.0,7.15,214.0,8.56,13.53,47.59359,-54.27349
2022-07-11 11:44:00+00:00,209.0,7.68,209.0,8.45,13.53,47.59359,-54.27349
2022-07-11 11:54:00+00:00,205.0,7.71,203.0,8.34,13.53,47.59359,-54.27349
2022-07-11 12:04:00+00:00,204.0,7.68,206.0,8.43,13.53,47.59359,-54.27349
2022-07-11 12:14:00+00:00,219.0,9.02,230.0,11.79,13.84,47.59359,-54.27349
2022-07-11 12:24:00+00:00,210.0,8.59,221.0,10.77,13.84,47.59359,-54.27349
2022-07-11 12:34:00+00:00,214.0,9.44,227.0,11.39,13.84,47.59359,-54.27349
2022-07-11 12:44:00+00:00,202.0,8.09,204.0,8.86,13.84,47.59359,-54.27349
2022-07-11 12:54:00+00:00,204.0,8.65,216.0,10.05,13.84,47.59359,-54.27349
2022-07-11 13:04:00+00:00,205.0,9.6,209.0,11.44,13.84,47.59359,-54.27349
2022-07-11 13:14:00+00:00,202.0,9.48,200.0,10.35,14.24,47.59359,-54.27349
2022-07-11 13:24:00+00:00,200.0,8.8,198.0,9.86,14.24,47.59359,-54.27349
2022-07-11 13:34:00+00:00,203.0,9.8,205.0,11.26,14.24,47.59359,-54.27349
2022-07-11 13:44:00+00:00,206.0,9.72,214.0,11.4,14.24,47.59359,-54.27349
2022-07-11 13:54:00+00:00,213.0,10.45,223.0,12.92,14.24,47.59359,-54.27349
2022-07-11 14:04:00+00:00,204.0,9.24,220.0,11.42,14.24,47.59359,-54.27349
2022-07-11 14:14:01+00:00,203.0,8.88,204.0,10.07,14.24,47.59359,-54.27349
2022-07-11 14:24:01+00:00,201.0,9.54,201.0,10.88,14.24,47.59359,-54.27349
2022-07-11 14:34:01+00:00,200.0,10.46,198.0,12.66,14.24,47.59359,-54.27349
2022-07-11 14:44:01+00:00,204.0,10.09,214.0,11.9,14.24,47.59359,-54.27349
2022-07-11 14:54:01+00:00,203.0,10.49,211.0,12.07,14.24,47.59359,-54.27349
2022-07-11 15:04:01+00:00,215.0,11.8,222.0,13.62,14.24,47.59359,-54.27349
2022-07-11 15:14:01+00:00,210.0,10.63,220.0,13.28,14.32,47.59359,-54.27349
2022-07-11 15:24:01+00:00,217.0,12.47,215.0,14.46,14.32,47.59359,-54.27349
2022-07-11 15:34:01+00:00,218.0,13.04,221.0,14.89,14.32,47.59359,-54.27349
2022-07-11 15:44:01+00:00,219.0,12.29,222.0,14.23,14.32,47.59359,-54.27349
2022-07-11 15:54:01+00:00,220.0,12.35,224.0,14.35,14.32,47.59359,-54.27349
2022-07-11 16:04:01+00:00,222.0,12.82,222.0,14.3,14.32,47.59359,-54.27349
2022-07-11 16:14:00+00:00,204.0,11.12,219.0,13.05,14.24,47.59359,-54.27349
2022-07-11 16:24:00+00:00,209.0,10.8,223.0,13.39,14.24,47.59359,-54.27349
2022-07-11 16:34:00+00:00,207.0,11.49,215.0,13.26,14.24,47.59359,-54.27349
2022-07-11 16:44:00+00:00,196.0,11.21,198.0,12.76,14.24,47.59359,-54.27349
2022-07-11 16:54:00+00:00,208.0,11.57,216.0,14.06,14.24,47.59359,-54.27349
2022-07-11 17:04:00+00:00,208.0,11.16,220.0,13.45,14.24,47.59359,-54.27349
2022-07-11 17:14:01+00:00,217.0,12.9,214.0,14.43,13.92,47.59359,-54.27349
2022-07-11 17:24:01+00:00,206.0,9.89,216.0,12.06,13.92,47.59359,-54.27349
2022-07-11 17:34:01+00:00,214.0,9.49,214.0,11.17,13.92,47.59359,-54.27349
2022-07-11 17:44:01+00:00,215.0,11.56,221.0,12.87,13.92,47.59359,-54.27349
2022-07-11 17:54:01+00:00,220.0,12.6,221.0,13.9,13.92,47.59359,-54.27349
2022-07-11 18:04:01+00:00,219.0,12.66,215.0,14.81,13.92,47.59359,-54.27349
2022-07-11 18:14:01+00:00,215.0,12.15,219.0,13.91,13.68,47.59359,-54.27349
2022-07-11 18:24:01+00:00,214.0,11.71,219.0,13.47,13.68,47.59359,-54.27349
2022-07-11 18:34:01+00:00,214.0,10.54,220.0,12.42,13.68,47.59359,-54.27349
2022-07-11 18:44:01+00:00,219.0,11.04,223.0,13.0,13.68,47.59359,-54.27349
2022-07-11 18:54:01+00:00,209.0,9.72,213.0,11.41,13.68,47.59359,-54.27349
2022-07-11 19:04:01+00:00,211.0,9.55,213.0,11.5,13.68,47.59359,-54.27349
2022-07-11 19:14:01+00:00,213.0,9.84,220.0,11.7,13.6,47.59359,-54.27349
2022-07-11 19:24:01+00:00,212.0,9.92,220.0,11.45,13.6,47.59359,-54.27349
2022-07-11 19:34:01+00:00,208.0,9.05,216.0,10.84,13.6,47.59359,-54.27349
2022-07-11 19:44:01+00:00,213.0,9.39,215.0,10.91,13.6,47.59359,-54.27349
2022-07-11 19:54:01+00:00,207.0,10.16,209.0,12.23,13.6,47.59359,-54.27349
2022-07-11 20:04:01+00:00,213.0,10.57,213.0,12.96,13.6,47.59359,-54.27349
2022-07-11 20:14:00+00:00,215.0,9.82,216.0,11.16,13.76,47.59359,-54.27349
2022-07-11 20:24:00+00:00,212.0,10.59,213.0,12.36,13.76,47.59359,-54.27349
2022-07-11 20:34:00+00:00,207.0,9.64,217.0,11.14,13.76,47.59359,-54.27349
2022-07-11 20:44:00+00:00,211.0,9.87,210.0,11.46,13.76,47.59359,-54.27349
2022-07-11 20:54:00+00:00,213.0,10.37,213.0,11.39,13.76,47.59359,-54.27349
2022-07-11 21:04:00+00:00,213.0,10.14,213.0,11.68,13.76,47.59359,-54.27349
2022-07-11 21:14:00+00:00,212.0,9.88,218.0,11.29,13.68,47.59359,-54.27349
2022-07-11 21:24:00+00:00,217.0,11.15,217.0,12.65,13.68,47.59359,-54.27349
2022-07-11 21:34:00+00:00,215.0,11.45,212.0,13.08,13.68,47.59359,-54.27349
2022-07-11 21:44:00+00:00,214.0,11.31,215.0,13.58,13.68,47.59359,-54.27349
2022-07-11 21:54:00+00:00,215.0,10.71,215.0,12.01,13.68,47.59359,-54.27349
2022-07-11 22:04:00+00:00,216.0,11.21,217.0,12.54,13.68,47.59359,-54.27349
2022-07-11 22:14:00+00:00,215.0,11.77,217.0,13.06,13.29,47.59359,-54.27349
2022-07-11 22:24:00+00:00,216.0,10.93,213.0,12.08,13.29,47.59359,-54.27349
2022-07-11 22:34:00+00:00,215.0,11.46,216.0,13.05,13.29,47.59359,-54.27349
2022-07-11 22:44:00+00:00,216.0,11.27,216.0,12.59,13.29,47.59359,-54.27349
2022-07-11 22:54:00+00:00,216.0,10.66,212.0,12.24,13.29,47.59359,-54.27349
2022-07-11 23:04:00+00:00,217.0,11.04,212.0,12.13,13.29,47.59359,-54.27349
2022-07-11 23:14:00+00:00,218.0,9.62,217.0,11.16,12.97,47.59359,-54.27349
2022-07-11 23:24:00+00:00,217.0,11.07,219.0,12.57,12.97,47.59359,-54.27349
2022-07-11 23:34:00+00:00,216.0,12.11,216.0,14.12,12.97,47.59359,-54.27349
2022-07-11 23:44:00+00:00,217.0,11.75,217.0,13.92,12.97,47.59359,-54.27349
2022-07-11 23:54:00+00:00,220.0,11.02,217.0,12.32,12.97,47.59359,-54.27349
